Location: *
(38.8710°N, 77.0560°W)
Time: 10:08:46
(UTC+00:00)

Daily predictions for brighter satellites

Satellite Brightness Start Highest point End
(mag) Time Altitude Azimuth Time Altitude Azimuth Time Altitude Azimuth
H-2A R/B 3.2 22:11:30 10° SE 22:14:54 36° ENE 22:18:19 10° N
OAO 2 Rocket 4.0 22:10:53 10° W 22:15:42 53° S 22:20:35 10° ESE
Cosmos 1441 Rocket 4.2 22:13:58 10° NNE 22:17:11 25° ENE 22:20:20 10° SE
Nadezhda 4 Rocket 4.1 22:11:41 10° S 22:18:01 90° W 22:24:22 10° N
USA 215 3.8 22:15:26 10° NE 22:21:48 56° NW 22:28:08 10° WSW
Shenzhou-11 Module 1.7 22:21:31 10° WNW 22:24:16 89° SSW 22:27:00 10° ESE
SMAP 3.1 22:20:00 10° SSE 22:24:33 59° ENE 22:29:09 10° N
Genesis I 3.5 22:23:27 10° NNW 22:27:09 42° NE 22:30:48 10° SE
Abrixas rocket 2.7 22:24:35 10° SSW 22:27:25 39° SE 22:30:00 12° ENE
Cosmos 1140 Rocket 4.1 22:22:50 10° SSE 22:27:25 34° E 22:32:03 10° NE
CZ-4C R/B 3.7 22:27:14 10° SE 22:29:31 13° ESE 22:31:50 10° ENE
Cosmos 1782 Rocket 4.2 22:26:37 10° NNE 22:30:33 33° ENE 22:34:27 10° SE
Envisat 3.5 22:26:16 10° SE 22:30:53 36° ENE 22:35:30 10° N
Cosmos 1666 2.6 22:29:37 10° N 22:33:20 65° E 22:37:01 10° SSE
Cosmos 1703 Rocket 3.5 22:33:26 10° S 22:37:53 73° E 22:42:22 10° NNE
Cosmos 2026 Rocket 4.0 22:33:31 10° S 22:39:25 58° E 22:45:22 10° NNE
Cosmos 407 Rocket 3.5 22:34:20 10° S 22:39:27 69° ESE 22:44:41 10° NNE
Okean 2 Rocket 4.3 22:39:28 10° NNE 22:42:51 20° ENE 22:46:12 10° ESE
Cosmos 2297 3.8 22:37:57 10° NNW 22:43:34 56° ENE 22:49:05 10° SE
Sich 1 Rocket 4.0 22:42:51 10° N 22:46:56 37° ENE 22:51:00 10° SSE
YAOGAN 6 3.4 22:43:56 10° SE 22:46:57 27° ENE 22:50:04 10° NNE
NOAA 12 4.1 22:41:47 10° SSE 22:47:00 62° ENE 22:52:13 10° N
STARLINK-48 4.1 22:44:02 10° SSW 22:47:41 40° SE 22:50:05 19° ENE
USA 267 3.3 22:47:14 10° ESE 22:53:39 61° NE 23:00:05 10° NW
Okean O Rocket 4.4 22:50:33 10° SW 22:53:51 21° W 22:57:11 10° NW
ISS -0.6 22:52:07 10° W 22:54:16 16° SW 22:56:25 10° S
Cosmos 292 Rocket 4.3 22:50:34 10° NNW 22:55:24 65° WSW 23:00:10 10° S
Cosmos 1743 2.6 23:04:53 10° N 23:08:46 72° E 23:12:38 10° SSE
Okean 1-7 3.7 23:06:45 10° SSW 23:11:00 55° W 23:15:18 10° N
Cosmos 1943 3.9 23:09:39 10° SSE 23:14:34 32° ESE 23:16:08 27° ENE
GPS 2-05 Rocket1 4.1 23:13:57 10° SW 23:16:06 21° SSE 23:16:20 20° SSE
Okean-O 3.0 23:13:23 10° S 23:17:47 68° WSW 23:22:12 10° NNW
SL-4 R/B 4.0 23:15:36 10° NNW 23:17:48 15° N 23:17:48 15° N
Meteor 1-18 Rocket 4.2 23:12:11 10° S 23:17:55 86° W 23:23:34 10° N
Delta 2 Rocket 4.1 23:14:03 10° WSW 23:19:07 56° S 23:21:18 29° ESE
Okean 1 3.7 23:15:22 10° SSW 23:19:18 62° W 23:23:15 10° N
COSMO-SKYMED 1 2.5 23:16:13 10° NNE 23:20:35 88° WNW 23:24:55 10° SSW
Cosmos 1241 Rocket 4.4 23:14:28 10° SSW 23:20:52 84° ESE 23:25:33 19° NNE
YAOGAN 1 2.8 23:16:51 10° SE 23:20:57 45° ENE 23:25:07 10° N
Cosmos 1867 3.5 23:15:50 10° NNW 23:21:16 63° ENE 23:26:37 10° SE
Lacrosse 5 2.0 23:20:45 10° SSW 23:25:43 57° SE 23:27:27 37° ENE
EP 2 4.5 23:26:36 10° SSW 23:29:28 77° S 23:29:28 77° S
Cosmos 1655 Rocket 3.9 23:23:30 10° S 23:29:46 71° E 23:36:01 10° NNE
Cosmos 2369 Rocket 2.6 23:25:13 10° N 23:30:30 39° ENE 23:31:26 36° E
SL-16 R/B 3.5 23:27:40 10° SW 23:32:53 37° WNW 23:38:09 10° N
CZ-4 R/B 1.1 23:30:32 10° SSE 23:34:25 87° ENE 23:38:17 10° NNW
FengYun 1-2 T 4.3 23:31:05 10° S 23:36:33 77° WSW 23:42:05 10° NNW
Meteor 2-13 Rocket 4.3 23:31:10 10° S 23:37:13 80° E 23:43:18 10° N
CZ-3B R/B 3.6 23:33:52 10° SSW 23:37:21 18° SSE 23:39:07 16° SE
Cosmos 676 Rocket 4.3 23:33:41 10° SSW 23:38:48 66° WNW 23:42:41 18° N
Cosmos 1603 3.6 23:34:13 10° SSW 23:39:53 73° ESE 23:42:25 34° NNE
DMSP B5D1-3 4.4 23:41:52 41° NE 23:43:30 63° ESE 23:48:33 10° S
Cosmos 1954 Rocket 4.4 23:40:22 10° SSW 23:45:28 61° WNW 23:49:01 20° N
Okean 3 3.5 23:41:33 10° SSW 23:45:43 74° W 23:47:24 35° N
STARLINK-80 4.3 23:44:24 10° WSW 23:47:58 39° NW 23:48:12 39° NNW
OAO 3 Rocket 4.4 23:43:45 10° W 23:48:02 35° SSW 23:49:43 27° SSE
IRIDIUM 104 4.2 23:46:47 10° S 23:51:59 80° E 23:54:45 29° N
